Hovedside
METAR-TAF:

METAR-TAF

Lufthavner :

Namsos, Norge

Namsos lufthavn

breddegrad: 64-28N, lengdegrad: 011-35E, høyde over havet: 0 m

Gjeldene værobservasjon

Denne rapporten ble laget for 1 time og 59 minutter siden, klokken 19:50 UTC
Vind 13 kt fra Øst
Temperatur 16°C
Luftfuktighet 72%
Trykk 1004 hPa
Sikt 10 km eller mer
ingen skyer under 1500 m og ingen bygeskyer

METAR: ENNM 181950Z 09013KT CAVOK 16/11 Q1004

Tid: 23:49 (21:49 UTC)


TAF: fraværende

Værobservasjoner og værvarsel for over 4000 flyplasser (METAR- og TAF-rapporter).

Tilgjengelige stasjoner er representert av de røde og gule prikkene på kartet.

Hold musepekeren over prikken for å se navnet på stasjonen.

Klikk så for å se værobservasjoner og -varsler.

For å forandre kartet kan du klikke på den grønne knappen med svart kryss for å zoome inn, på den grønne knappen med strek for å zoome ut, eller på de grønne pilene for å se tilstøtende kart.


METAR-TAF: